Pineville, WV

12:34 AM EST on December 16, 2019 (GMT -0500)
Pineville

Weather History for KI16 - October, 2019

Change the Weather History Date:

Saturday, October 26, 2019

  Actual Average (WUND) Record (WUND)
Temperature  
Mean Temperature 62 °F -  
Max Temperature 72 °F - - (-1)
Min Temperature 52 °F - - (-1)
Degree Days  
Heating Degree Days 3    
Growing Degree Days 12 (Base 50)    
Moisture  
Dew Point 55 °F    
Average Humidity 80    
Maximum Humidity 99    
Minimum Humidity 56    
Precipitation  
Precipitation 0.00 in - - ()
Sea Level Pressure  
Sea Level Pressure 30.07 in    
Wind  
Wind Speed - ()    
Max Wind Speed -    
Max Gust Speed -    
Visibility 9.6 miles    
Events Rain    
Averages and records for this station are not official NWS values.
T = Trace of Precipitation, MM = Missing Value Source: Averaged Metar Reports

Daily Weather History Graph

Daily Weather History Graph

Search for Another Location

Airport or City:

Astronomy

Oct. 26, 2019 Rise Set
Actual Time 7:44 AM EDT 6:34 PM EDT
Civil Twilight 7:18 AM EDT 7:01 PM EDT
Nautical Twilight 6:47 AM EDT 7:32 PM EDT
Astronomical Twilight 6:17 AM EDT 8:02 PM EDT
Moon 5:42 AM EDT (10/26) 6:06 PM EDT (10/26)
Length of Visible Light 11h 43m
Length of Day
10h 50m
Waning Crescent, 3% of the Moon is Illuminated
Oct 26
Waning Crescent
Oct 27
New
Nov 4
First Quarter
Nov 12
Full
Nov 19
Last Quarter

Hourly Weather History & Observations

Time (EDT) Temp. Dew Point Humidity Pressure Visibility Wind Dir Wind Speed Gust Speed Precip Events Conditions
12:15 AM 52.7 °F 51.8 °F 97% 30.24 in 10.0 mi North - - N/A   Overcast
12:35 AM 52.7 °F 51.8 °F 97% 30.24 in 10.0 mi North - - N/A   Overcast
12:55 AM 52.7 °F 51.8 °F 97% 30.23 in 10.0 mi North - - N/A   Overcast
1:15 AM 52.7 °F 51.8 °F 97% 30.23 in 10.0 mi North - - N/A   Mostly Cloudy
1:35 AM 52.7 °F 52.0 °F 97% 30.22 in 10.0 mi North - - N/A   Overcast
1:55 AM 52.7 °F 52.0 °F 97% 30.21 in 10.0 mi North - - N/A   Mostly Cloudy
2:15 AM 52.7 °F 51.8 °F 97% 30.21 in 10.0 mi North - - N/A   Mostly Cloudy
2:35 AM 52.7 °F 51.8 °F 97% 30.21 in 10.0 mi North - - N/A   Mostly Cloudy
2:55 AM 52.3 °F 51.8 °F 98% 30.20 in 10.0 mi North - - N/A   Clear
3:15 AM 52.2 °F 51.3 °F 97% 30.19 in 10.0 mi North - - N/A   Scattered Clouds
3:35 AM 52.3 °F 51.6 °F 97% 30.19 in 10.0 mi North - - N/A   Clear
3:55 AM 52.2 °F 51.3 °F 97% 30.18 in 10.0 mi North - - N/A   Scattered Clouds
4:15 AM 52.3 °F 51.8 °F 98% 30.18 in 10.0 mi North - - N/A   Mostly Cloudy
4:35 AM 52.7 °F 51.8 °F 97% 30.18 in 10.0 mi North - - N/A   Overcast
4:55 AM 52.7 °F 51.8 °F 97% 30.17 in 10.0 mi North - - N/A   Overcast
5:15 AM 53.2 °F 52.0 °F 95% 30.17 in 10.0 mi North - - N/A   Light Drizzle
5:35 AM 52.9 °F 51.8 °F 96% 30.16 in 10.0 mi North - - N/A   Drizzle
5:55 AM 53.1 °F 52.0 °F 96% 30.16 in 10.0 mi North - - N/A   Drizzle
6:15 AM 53.1 °F 52.2 °F 97% 30.16 in 10.0 mi North - - N/A   Light Drizzle
6:55 AM 53.1 °F 52.3 °F 97% 30.14 in 10.0 mi North - - N/A Rain Light Rain
7:15 AM 52.9 °F 52.5 °F 99% 30.14 in 10.0 mi North - - N/A Rain Light Rain
7:35 AM 53.2 °F 52.7 °F 98% 30.14 in 10.0 mi North - - N/A Rain Rain
7:55 AM 53.6 °F 52.9 °F 97% 30.14 in 7.0 mi North - - N/A Rain Light Rain
8:15 AM 53.8 °F 53.2 °F 98% 30.14 in 7.0 mi North - - N/A Rain Light Rain
8:35 AM 54.1 °F 53.6 °F 98% 30.14 in 7.0 mi North - - N/A Rain Light Rain
8:55 AM 54.5 °F 54.0 °F 98% 30.15 in 7.0 mi North - - N/A Rain Light Rain
9:15 AM 54.7 °F 54.1 °F 98% 30.15 in 7.0 mi North - - N/A Rain Rain
9:35 AM 55.2 °F 54.5 °F 97% 30.14 in 3.0 mi North - - N/A Rain Rain
9:55 AM 56.5 °F 55.9 °F 98% 30.13 in 4.0 mi North - - N/A Rain Rain
10:15 AM 57.7 °F 57.0 °F 97% 30.12 in 10.0 mi North - - N/A   Overcast
10:35 AM 59.5 °F 58.8 °F 97% 30.11 in 10.0 mi North - - N/A Rain Light Rain
10:55 AM 61.5 °F 58.5 °F 90% 30.11 in 10.0 mi North - - N/A   Overcast
11:15 AM 62.1 °F 58.1 °F 87% 30.11 in 10.0 mi North - - N/A   Overcast
11:35 AM 63.0 °F 57.9 °F 84% 30.11 in 10.0 mi North - - N/A   Mostly Cloudy
11:55 AM 64.8 °F 58.1 °F 79% 30.10 in 10.0 mi North - - N/A   Mostly Cloudy
12:15 PM 66.2 °F 57.7 °F 74% 30.09 in 10.0 mi North - - N/A   Scattered Clouds
12:35 PM 68.7 °F 58.5 °F 70% 30.09 in 10.0 mi North - - N/A   Mostly Cloudy
12:55 PM 69.1 °F 57.9 °F 68% 30.08 in 10.0 mi North - - N/A   Mostly Cloudy
1:15 PM 70.9 °F 57.7 °F 63% 30.05 in 10.0 mi North - - N/A   Scattered Clouds
1:35 PM 71.8 °F 56.1 °F 58% 30.04 in 10.0 mi North - - N/A   Mostly Cloudy
1:55 PM 71.8 °F 56.3 °F 58% 30.04 in 10.0 mi North - - N/A   Scattered Clouds
2:15 PM 72.1 °F 55.8 °F 56% 30.03 in 10.0 mi North - - N/A   Scattered Clouds
2:35 PM 71.4 °F 55.4 °F 57% 30.02 in 10.0 mi North - - N/A   Scattered Clouds
2:55 PM 70.5 °F 55.4 °F 59% 30.02 in 10.0 mi North - - N/A   Scattered Clouds
3:15 PM 69.8 °F 55.2 °F 60% 30.01 in 10.0 mi North - - N/A   Scattered Clouds
3:35 PM 70.3 °F 55.2 °F 59% 30.00 in 10.0 mi North - - N/A   Clear
3:55 PM 70.7 °F 55.4 °F 58% 30.00 in 10.0 mi North - - N/A   Clear
4:15 PM 70.7 °F 55.6 °F 59% 29.99 in 10.0 mi North - - N/A   Clear
4:35 PM 70.7 °F 55.6 °F 59% 29.98 in 10.0 mi North - - N/A   Clear
5:15 PM 70.3 °F 55.4 °F 59% 29.98 in 10.0 mi North - - N/A   Clear
5:35 PM 70.9 °F 55.0 °F 57% 29.97 in 10.0 mi North - - N/A   Clear
5:55 PM 70.9 °F 54.5 °F 56% 29.98 in 10.0 mi North - - N/A   Mostly Cloudy
6:15 PM 70.5 °F 54.5 °F 57% 29.98 in 10.0 mi North - - N/A   Overcast
6:35 PM 70.3 °F 54.5 °F 57% 29.97 in 10.0 mi North - - N/A   Mostly Cloudy
6:55 PM 70.3 °F 54.5 °F 57% 29.98 in 10.0 mi North - - N/A   Mostly Cloudy
7:15 PM 69.8 °F 55.2 °F 60% 29.98 in 10.0 mi North - - N/A   Overcast
7:35 PM 69.8 °F 55.4 °F 60% 29.98 in 10.0 mi North - - N/A   Mostly Cloudy
7:55 PM 69.3 °F 55.9 °F 62% 29.96 in 10.0 mi North - - N/A   Mostly Cloudy
8:15 PM 69.1 °F 56.3 °F 64% 29.95 in 10.0 mi North - - N/A   Scattered Clouds
8:35 PM 68.9 °F 56.7 °F 65% 29.94 in 10.0 mi North - - N/A   Scattered Clouds
8:55 PM 68.4 °F 56.8 °F 67% 29.94 in 10.0 mi North - - N/A   Scattered Clouds
9:15 PM 68.0 °F 57.2 °F 68% 29.93 in 10.0 mi North - - N/A   Scattered Clouds
9:35 PM 68.2 °F 57.4 °F 68% 29.92 in 10.0 mi North - - N/A   Mostly Cloudy
9:55 PM 68.0 °F 57.7 °F 70% 29.92 in 10.0 mi North - - N/A   Mostly Cloudy
10:15 PM 68.0 °F 58.1 °F 71% 29.91 in 10.0 mi North - - N/A   Overcast
10:35 PM 68.0 °F 58.3 °F 71% 29.91 in 10.0 mi North - - N/A   Overcast
10:55 PM 68.0 °F 58.5 °F 71% 29.90 in 10.0 mi North - - N/A   Overcast
11:15 PM 67.8 °F 59.0 °F 73% 29.90 in 10.0 mi North - - N/A   Overcast
11:55 PM 68.4 °F 59.5 °F 73% 29.86 in 10.0 mi North - - N/A   Mostly Cloudy